Tracking 19286 objects as of 18-Nov-2018
HD Live streaming from Space Station
objects crossing your sky now

XM-2

Track XM-2 now!
XM-2 is classified as:


NORAD ID: 26724
Int'l Code: 2001-012A
Perigee: 36,127.0 km
Apogee: 36,135.9 km
Inclination: 3.2 °
Period: 1,453.4 minutes
Semi major axis: 42502 km
RCS: 25.1188 m2 (large)
Launch date: March 18, 2001
Source: United States (US)
Launch site: SEA LAUNCH (SEAL)

100 channels of digital music uplinked in the X-band from one or more ground stations.
aabbcc
Your satellite tracking list
Your tracking list is empty




NASA's NSSDC Master Catalog

Two Line Element Set (TLE):
1 26724U 01012A   18320.84767367 +.00000060 +00000-0 +00000-0 0  9993
2 26724 003.2219 077.3879 0001053 325.4858 034.3427 00.99079018014804
Source of the keplerian elements: AFSPC